This demonstration page uses our WeatherBlox Daily Observations layout. Learn more.

Left ArrowRight Arrow

40.92945, -100.16068

Hourly Observations for February 14, 2015

Temp ( °F °C ) Dew Point ( °F °C ) Humidity (%) Winds ( mph kmh ) Pressure ( in mb ) Visibility ( mi km ) Precip ( " mm )
12:15 am 00:15 Clear 32 -0.1 27 -2.8 82 82 W 7 11 30.21 1023 10 16 N/A
12:35 am 00:35 Clear 33 0.5 29 -1.8 85 85 WNW 9 15 30.21 1023 10 16 N/A
12:55 am 00:55 Clear 33 0.5 29 -1.5 87 87 NW 10 17 30.21 1023 10 16 N/A
1:15 am 01:15 Clear 32 0.2 28 -2 85 85 NW 10 17 30.21 1023 10 16 N/A
1:35 am 01:35 Clear 34 1 30 -1.1 86 86 WNW 8 13 30.18 1022 10 16 N/A
1:55 am 01:55 Clear 34 1.1 30 -1.1 85 85 WNW 12 19 30.21 1023 10 16 N/A
2:15 am 02:15 Clear 35 1.9 31 -0.5 84 84 WNW 12 19 30.15 1021 10 16 N/A
2:35 am 02:35 Clear 35 1.5 31 -0.7 85 85 WNW 12 19 30.15 1021 10 16 N/A
2:55 am 02:55 Clear 34 1.2 31 -0.8 87 87 WNW 12 19 30.21 1023 10 16 N/A
3:15 am 03:15 Clear 35 1.6 31 -0.5 86 86 WNW 9 15 30.18 1022 10 16 N/A
3:35 am 03:35 Clear 35 1.4 31 -0.6 87 87 W 9 15 30.21 1023 10 16 N/A
3:55 am 03:55 Clear 34 1.1 31 -0.7 88 88 WNW 9 15 30.21 1023 10 16 N/A
4:15 am 04:15 Clear 34 1.1 31 -0.8 87 87 WNW 10 17 30.21 1023 10 16 N/A
4:35 am 04:35 Clear 34 1 30 -0.9 87 87 W 10 17 30.18 1022 10 16 N/A
4:55 am 04:55 Clear 34 0.9 30 -1 87 87 WNW 9 15 30.21 1023 10 16 N/A
5:15 am 05:15 Clear 33 0.8 30 -0.9 89 89 WNW 10 17 30.21 1023 10 16 N/A
5:35 am 05:35 Clear 34 0.9 30 -1 87 87 WNW 10 17 30.21 1023 10 16 N/A
5:55 am 05:55 Clear 32 0.1 29 -1.5 89 89 NNW 7 11 30.21 1023 10 16 N/A
6:15 am 06:15 Clear 32 -0.2 29 -1.7 90 90 N 6 9 30.21 1023 10 16 N/A
6:35 am 06:35 Clear 30 -0.9 28 -2.5 89 89 NW 3 6 30.21 1023 10 16 N/A
6:55 am 06:55 Clear 28 -2.3 25 -3.8 90 90 N 3 6 30.27 1025 10 16 N/A
7:15 am 07:15 Clear 28 -2.1 26 -3.3 92 92 NNE 5 7 30.27 1025 10 16 N/A
7:35 am 07:35 Sunny 28 -2.1 26 -3.1 93 93 NE 7 11 30.30 1026 10 16 N/A
7:55 am 07:55 Sunny 32 0.1 29 -1.8 87 87 ENE 9 15 30.27 1025 10 16 N/A
8:15 am 08:15 Sunny 32 0.1 28 -2.1 85 85 NE 12 19 30.30 1026 10 16 N/A
8:35 am 08:35 Sunny 32 0 28 -2.3 85 85 ENE 15 24 30.30 1026 10 16 N/A
8:55 am 08:55 Sunny 32 0 28 -2.2 85 85 NE 18 30 30.30 1026 10 16 N/A
9:15 am 09:15 Mostly Cloudy 30 -1 27 -2.9 87 87 NE 21 33 30.36 1028 10 16 N/A
9:35 am 09:35 Cloudy 30 -1.3 27 -2.8 90 90 NE 21 33 30.39 1029 7 11 N/A
9:55 am 09:55 Cloudy 29 -1.6 27 -3 90 90 NE 23 37 30.39 1029 7 11 N/A
10:15 am 10:15 Cloudy 28 -2 26 -3.2 92 92 NE 23 37 30.39 1029 7 11 N/A
10:35 am 10:35 Cloudy 28 -2.1 26 -3.5 90 90 NE 18 30 30.42 1030 7 11 N/A
10:55 am 10:55 Cloudy 27 -2.6 25 -4.1 90 90 ENE 20 31 30.45 1031 10 16 N/A
11:15 am 11:15 Cloudy 28 -2.1 23 -4.8 82 82 ENE 17 28 30.45 1031 10 16 N/A
11:35 am 11:35 Cloudy 28 -2.4 22 -5.3 81 81 ENE 16 26 30.45 1031 10 16 N/A
11:55 am 11:55 Cloudy 28 -2.5 22 -5.6 80 80 ENE 16 26 30.45 1031 10 16 N/A
12:15 pm 12:15 Cloudy 27 -2.6 21 -6.2 77 77 ENE 15 24 30.48 1032 10 16 N/A
12:35 pm 12:35 Cloudy 27 -2.7 21 -6.2 77 77 ENE 16 26 30.48 1032 10 16 N/A
12:55 pm 12:55 Cloudy 27 -2.9 21 -6.3 78 78 ENE 18 30 30.45 1031 10 16 N/A
1:15 pm 13:15 Cloudy 26 -3.3 20 -6.5 79 79 ENE 20 31 30.45 1031 10 16 N/A
1:35 pm 13:35 Cloudy 28 -2.5 19 -7.4 69 69 E 17 28 30.42 1030 10 16 N/A
1:55 pm 13:55 Cloudy 28 -2.1 16 -8.8 61 61 E 15 24 30.42 1030 10 16 N/A
2:15 pm 14:15 Cloudy 28 -2.1 13 -10.6 53 53 E 16 26 30.42 1030 10 16 N/A
2:35 pm 14:35 Cloudy 27 -2.7 11 -11.4 52 52 E 13 20 30.42 1030 10 16 N/A
2:55 pm 14:55 Mostly Cloudy 28 -2.2 11 -11.6 49 49 E 12 19 30.39 1029 10 16 N/A
3:15 pm 15:15 Mostly Cloudy 29 -1.7 11 -11.5 48 48 E 10 17 30.39 1029 10 16 N/A
3:35 pm 15:35 Mostly Cloudy 29 -1.5 13 -10.7 50 50 E 13 20 30.39 1029 10 16 N/A
3:55 pm 15:55 Partly Cloudy 30 -1.1 8 -13.3 39 39 E 14 22 30.39 1029 10 16 N/A
4:15 pm 16:15 Partly Cloudy 29 -1.5 6 -14.5 37 37 ENE 13 20 30.39 1029 10 16 N/A
4:35 pm 16:35 Mostly Cloudy 29 -1.4 6 -14.3 37 37 ENE 14 22 30.39 1029 10 16 N/A
4:55 pm 16:55 Cloudy 28 -2 7 -13.9 40 40 ENE 14 22 30.39 1029 10 16 N/A
5:15 pm 17:15 Cloudy 27 -2.6 9 -13 45 45 E 17 28 30.36 1028 10 16 N/A
5:35 pm 17:35 Mostly Cloudy 26 -3.5 4 -15.3 40 40 E 13 20 30.42 1030 10 16 N/A
5:55 pm 17:55 Cloudy 25 -3.8 6 -14.7 43 43 E 17 28 30.42 1030 10 16 N/A
6:15 pm 18:15 Cloudy 24 -4.7 3 -15.9 42 42 E 15 24 30.42 1030 10 16 N/A
6:35 pm 18:35 Cloudy 23 -5 -1 -18.1 35 35 ESE 14 22 30.42 1030 10 16 N/A
6:55 pm 18:55 Cloudy 23 -5.2 0 -17.7 37 37 E 15 24 30.45 1031 10 16 N/A
7:15 pm 19:15 Cloudy 22 -5.4 2 -16.8 41 41 ESE 12 19 30.42 1030 10 16 N/A
7:35 pm 19:35 Cloudy 22 -5.3 5 -15.2 46 46 ESE 13 20 30.45 1031 10 16 N/A
7:55 pm 19:55 Cloudy 23 -5.2 6 -14.3 49 49 ESE 12 19 30.45 1031 10 16 N/A
8:15 pm 20:15 Cloudy 23 -5.1 6 -14.3 49 49 SE 14 22 30.45 1031 10 16 N/A
8:35 pm 20:35 Cloudy 22 -5.3 3 -15.9 43 43 SE 13 20 30.45 1031 10 16 N/A
8:55 pm 20:55 Cloudy 22 -5.5 3 -16 44 44 ESE 10 17 30.45 1031 10 16 N/A
9:15 pm 21:15 Cloudy 21 -6.1 5 -14.8 51 51 E 12 19 30.45 1031 10 16 N/A
9:35 pm 21:35 Cloudy 21 -6.2 5 -15.1 50 50 ESE 12 19 30.45 1031 10 16 N/A
9:55 pm 21:55 Cloudy 21 -6.2 3 -16 46 46 ESE 10 17 30.48 1032 10 16 N/A
10:15 pm 22:15 Cloudy 20 -6.5 4 -15.6 49 49 ESE 13 20 30.45 1031 10 16 N/A
10:35 pm 22:35 Cloudy 20 -6.7 4 -15.5 50 50 ESE 10 17 30.48 1032 10 16 N/A
10:55 pm 22:55 Cloudy 20 -6.7 5 -15 52 52 ESE 9 15 30.48 1032 10 16 N/A
11:15 pm 23:15 Cloudy 20 -6.8 5 -15 52 52 ESE 9 15 30.45 1031 10 16 N/A
11:35 pm 23:35 Cloudy 19 -7 5 -15.1 53 53 SE 9 15 30.45 1031 10 16 N/A
11:55 pm 23:55 Cloudy 19 -7 4 -15.3 52 52 SE 12 19 30.45 1031 10 16 N/A

Powered by AerisWeather